Weather in Kivat

Russia / Ulyanovsk Oblast     53°27′47″N   47°40′57″E
temp.,
°C
wind,
m/s
gust,
m/s
humid.,
%
clouds,
%
prec.,
mm/h
press.,
hPa
HPBL,
m
8 december, wed
wed801:00−5sse61676100 0.0 1028443
04:00−3sse61679100 0.0 1027466
07:00−2s61688100 0.1 1026478
10:00−1s61691100 0.1 1026481
13:000s61586100 0.0 1026514
16:000sse51387100 0.0 1026390
19:00−1sse51294100 0.0 1026337
22:00−2sse51496100 0.0 1025344
9 december, thu
thu901:00−2sse51395100 0.0 1025360
04:00−2sse51395100 0.0 1024364
07:00−2se51294100 0.0 1023376
10:00−2se51189100 0.0 1023410
13:00−2sse4984100 0.0 1023420
16:00−2se3784100 0.0 1022346
19:00−2se2588100 0.0 1022201
22:00−3ene1192100 0.0 102241
10 december, fri
fri1001:00−3nne2394100 0.0 102385
04:00−3nne3694100 0.0 1023204
07:00−3nne4994100 0.0 1023340
10:00−3nne61192100 0.0 1025527
13:00−2nne71288100 0.1 1025573
16:00−4nne71388100 0.1 1026531
19:00−6nne7158699 0.1 1028487
22:00−7nne714785 0.1 1029424
11 december, sat
sat1101:00−8nne714805 0.0 1031423
04:00−9nne614815 0.0 1032414
07:00−9nne613795 0.0 1034397
10:00−9nne612773 0.0 1036365
13:00−7ne510650 0.0 1037399
16:00−8ne512700 0.0 1038431
19:00−8ne412765 0.0 1039337
22:00−8ne310805 0.0 1041266
12 december, sun
sun1201:00−9nne37825 0.0 1042190
04:00−9nne26825 0.0 1043141
07:00−9nne24835 0.0 104394
10:00−8ne24795 0.0 1044128
13:00−6e23665 0.0 1044194
16:00−7e117756 0.0 104512
19:00−8ese1284100 0.0 104549
22:00−8se118662 0.0 104520